Location: Bodest
(46.3000°N, 22.5667°E)
Time: 09:31:56
(UTC+00:00)

Cosmos 1908 - Pass Details

Date: 16 October 2021
Orbit: 509 x 528 km, 82.5° (Epoch: 07 December)

Event Time Altitude Azimuth Distance (km) Brightness Sun altitude
Rises 16:05:16 0° 154° (SSE) 2,655 6.6 -4.9°
Reaches altitude 10° 16:07:45 10° 138° (SE) 1,769 5.6 -5.3°
Maximum altitude 16:10:44 21° 88° (E) 1,211 4.5 -5.8°
Drops below altitude 10° 16:13:43 10° 38° (NE) 1,776 5.5 -6.3°
Sets 16:16:13 0° 23° (NNE) 2,667 6.5 -6.8°
